Tracking 28790 objects as of 19-Apr-2024
HD Live streaming from Space Station
objects crossing your sky now

SYRACUSE 4A

Track SYRACUSE 4A now!


NORAD ID: 49333
Int'l Code: 2021-095B
Perigee: 35,785.6 km
Apogee: 35,801.6 km
Inclination: 0.0 °
Period: 1,436.1 minutes
Semi major axis: 42164 km
RCS: Unknown
Launch date: October 24, 2021
Source: France (FR)
Launch site: FRENCH GUIANA (FRGUI)
Your satellite tracking list
Your tracking list is empty




NASA's NSSDC Master Catalog

Two Line Element Set (TLE):
1 49333U 21095B   24109.61441382  .00000130  00000-0  00000-0 0  9998
2 49333   0.0187 264.6048 0001902 113.4739  95.8221  1.00272198 10042
Source of the keplerian elements: AFSPC